Roseau, MN

10:55 PM CDT on April 28, 2017 (GMT -0500)
Roseau Municipal-Billberg

Weather History for KROX - November, 2012

Change the Weather History Date:

Saturday, November 3, 2012

  Actual Average Record
Temperature  
Mean Temperature 32 °F -  
Max Temperature 39 °F 39 °F 73 °F (2008)
Min Temperature 24 °F 22 °F -1 °F (1991)
Degree Days  
Heating Degree Days 34    
Moisture  
Dew Point 26 °F    
Average Humidity 82    
Maximum Humidity 86    
Minimum Humidity 70    
Precipitation  
Precipitation 0.01 in - - ()
Sea Level Pressure  
Sea Level Pressure 30.22 in    
Wind  
Wind Speed 5 mph (ENE)    
Max Wind Speed 12 mph    
Max Gust Speed -    
Visibility 9 miles    
Events Snow    
Averages and records for this station are not official NWS values.
T = Trace of Precipitation, MM = Missing Value Source: NWS Daily Summary

Daily Weather History Graph

Daily Weather History Graph

Search for Another Location

Airport or City:

Trip Planner

Search our weather history database for the weather conditions in past years. The results will help you decide how hot, cold, wet, or windy it might be!

Date:

Astronomy

Nov. 03, 2012 Rise Set
Actual Time 8:13 AM CDT 5:58 PM CDT
Civil Twilight 7:40 AM CDT 6:31 PM CDT
Nautical Twilight 7:02 AM CDT 7:09 PM CDT
Astronomical Twilight 6:26 AM CDT 7:45 PM CDT
Moon 9:32 PM CDT (11/3) 12:27 PM CDT (11/3)
Length of Visible Light 10h 51m
Length of Day
9h 44m
Waning Gibbous, 80% of the Moon is Illuminated
Nov 3
Waning Gibbous
Nov 6
Last Quarter
Nov 13
New
Nov 20
First Quarter
Nov 28
Full

Hourly Weather History & Observations

Time (CDT) Temp. Windchill Dew Point Humidity Pressure Visibility Wind Dir Wind Speed Gust Speed Precip Events Conditions
12:14 AM 30.2 °F 23.4 °F 24.8 °F 80% 30.20 in 3.0 mi ESE 6.9 mph - N/A Snow Light Snow
12:35 AM 28.4 °F 24.6 °F 24.8 °F 86% 30.21 in 2.0 mi SE 3.5 mph - N/A Snow Light Snow
12:54 AM 28.4 °F 24.6 °F 24.8 °F 86% 30.21 in 2.5 mi SSE 3.5 mph - N/A Snow Light Snow
1:14 AM 28.4 °F 24.6 °F 24.8 °F 86% 30.21 in 2.5 mi ESE 3.5 mph - N/A Snow Light Snow
1:34 AM 28.4 °F - 24.8 °F 86% 30.20 in 3.0 mi Calm Calm - N/A Snow Light Snow
1:54 AM 28.4 °F 24.6 °F 24.8 °F 86% 30.20 in 3.0 mi East 3.5 mph - N/A Snow Light Snow
2:15 AM 28.4 °F 24.6 °F 24.8 °F 86% 30.20 in 7.0 mi ENE 3.5 mph - 0.01 in Snow Light Snow
2:34 AM 28.4 °F 24.6 °F 24.8 °F 86% 30.20 in 10.0 mi ENE 3.5 mph - 0.01 in Snow Light Snow
2:54 AM 28.4 °F 24.6 °F 24.8 °F 86% 30.20 in 10.0 mi ENE 3.5 mph - 0.01 in   Scattered Clouds
3:14 AM 28.4 °F - 24.8 °F 86% 30.20 in 10.0 mi Calm Calm - N/A   Scattered Clouds
3:34 AM 28.4 °F 23.3 °F 24.8 °F 86% 30.20 in 10.0 mi East 4.6 mph - N/A   Mostly Cloudy
3:54 AM 28.4 °F 24.6 °F 24.8 °F 86% 30.20 in 10.0 mi East 3.5 mph - N/A   Scattered Clouds
4:14 AM 28.4 °F 24.6 °F 24.8 °F 86% 30.20 in 10.0 mi East 3.5 mph - N/A   Scattered Clouds
4:34 AM 28.4 °F 22.2 °F 24.8 °F 86% 30.20 in 10.0 mi East 5.8 mph - N/A   Scattered Clouds
4:54 AM 28.4 °F 23.3 °F 24.8 °F 86% 30.19 in 10.0 mi East 4.6 mph - N/A   Scattered Clouds
5:14 AM 28.4 °F 24.6 °F 24.8 °F 86% 30.20 in 10.0 mi East 3.5 mph - N/A   Scattered Clouds
5:34 AM 28.4 °F 24.6 °F 24.8 °F 86% 30.20 in 10.0 mi East 3.5 mph - N/A   Scattered Clouds
5:54 AM 28.4 °F 23.3 °F 24.8 °F 86% 30.20 in 10.0 mi East 4.6 mph - N/A   Mostly Cloudy
6:14 AM 28.4 °F 22.2 °F 24.8 °F 86% 30.20 in 10.0 mi East 5.8 mph - N/A   Scattered Clouds
6:34 AM 28.4 °F 24.6 °F 24.8 °F 86% 30.20 in 10.0 mi East 3.5 mph - N/A   Scattered Clouds
6:54 AM 28.4 °F 23.3 °F 24.8 °F 86% 30.21 in 10.0 mi East 4.6 mph - N/A   Scattered Clouds
7:14 AM 28.4 °F 23.3 °F 24.8 °F 86% 30.21 in 10.0 mi East 4.6 mph - N/A   Mostly Cloudy
7:34 AM 28.4 °F 24.6 °F 24.8 °F 86% 30.21 in 10.0 mi East 3.5 mph - N/A   Mostly Cloudy
7:55 AM 28.4 °F 24.6 °F 24.8 °F 86% 30.22 in 10.0 mi ENE 3.5 mph - N/A   Mostly Cloudy
8:14 AM 28.4 °F 24.6 °F 24.8 °F 86% 30.22 in 10.0 mi East 3.5 mph - N/A   Mostly Cloudy
8:34 AM 28.4 °F 23.3 °F 24.8 °F 86% 30.22 in 10.0 mi ENE 4.6 mph - N/A   Scattered Clouds
8:55 AM 28.4 °F 23.3 °F 24.8 °F 86% 30.22 in 10.0 mi East 4.6 mph - N/A   Scattered Clouds
9:14 AM 28.4 °F 23.3 °F 24.8 °F 86% 30.22 in 10.0 mi East 4.6 mph - N/A   Mostly Cloudy
9:34 AM 28.4 °F 24.6 °F 24.8 °F 86% 30.22 in 10.0 mi East 3.5 mph - N/A   Scattered Clouds
9:55 AM 30.2 °F - 24.8 °F 80% 30.22 in 10.0 mi Calm Calm - N/A   Scattered Clouds
10:14 AM 30.2 °F 26.7 °F 24.8 °F 80% 30.23 in 10.0 mi ESE 3.5 mph - N/A   Scattered Clouds
10:34 AM 30.2 °F 25.4 °F 24.8 °F 80% 30.23 in 10.0 mi East 4.6 mph - N/A   Scattered Clouds
10:55 AM 30.2 °F 25.4 °F 26.6 °F 86% 30.23 in 10.0 mi East 4.6 mph - N/A   Scattered Clouds
11:14 AM 30.2 °F 24.3 °F 26.6 °F 86% 30.23 in 10.0 mi ENE 5.8 mph - N/A   Scattered Clouds
11:34 AM 30.2 °F 22.6 °F 26.6 °F 86% 30.24 in 10.0 mi ENE 8.1 mph - N/A   Scattered Clouds
11:55 AM 32.0 °F 24.8 °F 26.6 °F 80% 30.24 in 10.0 mi ENE 8.1 mph - N/A   Clear
12:14 PM 33.8 °F 27.0 °F 28.4 °F 81% 30.23 in 10.0 mi East 8.1 mph - N/A   Clear
12:34 PM 33.8 °F 27.0 °F 28.4 °F 81% 30.23 in 10.0 mi ENE 8.1 mph - N/A   Scattered Clouds
12:55 PM 35.6 °F 29.2 °F 30.2 °F 81% 30.23 in 10.0 mi East 8.1 mph - N/A   Scattered Clouds
1:14 PM 35.6 °F 29.2 °F 30.2 °F 81% 30.23 in 10.0 mi East 8.1 mph - N/A   Scattered Clouds
1:34 PM 37.4 °F 31.4 °F 30.2 °F 75% 30.23 in 10.0 mi ENE 8.1 mph - N/A   Scattered Clouds
1:54 PM 37.4 °F 32.8 °F 30.2 °F 75% 30.22 in 10.0 mi East 5.8 mph - N/A   Scattered Clouds
2:14 PM 37.4 °F 32.1 °F 30.2 °F 75% 30.22 in 10.0 mi East 6.9 mph - N/A   Scattered Clouds
2:34 PM 39.2 °F 32.0 °F 30.2 °F 70% 30.22 in 10.0 mi NE 11.5 mph - N/A   Scattered Clouds
2:54 PM 37.4 °F 30.8 °F 30.2 °F 75% 30.22 in 10.0 mi ENE 9.2 mph - N/A   Scattered Clouds
3:14 PM 37.4 °F 31.4 °F 30.2 °F 75% 30.22 in 10.0 mi East 8.1 mph - N/A   Clear
3:34 PM 39.2 °F 33.6 °F 30.2 °F 70% 30.22 in 10.0 mi East 8.1 mph - N/A   Clear
3:54 PM 39.2 °F 35.0 °F 30.2 °F 70% 30.21 in 10.0 mi SE 5.8 mph - N/A   Clear
4:14 PM 39.2 °F 33.6 °F 30.2 °F 70% 30.22 in 10.0 mi NE 8.1 mph - N/A   Scattered Clouds
4:34 PM 39.2 °F 32.5 °F 30.2 °F 70% 30.22 in 10.0 mi ENE 10.4 mph - N/A   Mostly Cloudy
4:54 PM 37.4 °F 31.4 °F 30.2 °F 75% 30.23 in 10.0 mi ENE 8.1 mph - N/A   Mostly Cloudy
5:14 PM 35.6 °F 28.0 °F 28.4 °F 75% 30.23 in 10.0 mi ENE 10.4 mph - N/A   Scattered Clouds
5:34 PM 35.6 °F 29.9 °F 30.2 °F 81% 30.23 in 10.0 mi NE 6.9 mph - N/A   Scattered Clouds
5:54 PM 35.6 °F 28.6 °F 28.4 °F 75% 30.23 in 10.0 mi ENE 9.2 mph - N/A   Scattered Clouds
6:14 PM 35.6 °F 29.2 °F 28.4 °F 75% 30.24 in 10.0 mi NE 8.1 mph - N/A   Scattered Clouds
6:34 PM 33.8 °F 27.7 °F 28.4 °F 81% 30.24 in 10.0 mi NE 6.9 mph - N/A   Mostly Cloudy
6:54 PM 33.8 °F 27.0 °F 28.4 °F 81% 30.25 in 10.0 mi ENE 8.1 mph - N/A   Mostly Cloudy
7:14 PM 33.8 °F 27.7 °F 28.4 °F 81% 30.25 in 10.0 mi NE 6.9 mph - N/A   Mostly Cloudy
7:34 PM 33.8 °F 27.7 °F 26.6 °F 75% 30.25 in 10.0 mi NE 6.9 mph - N/A   Mostly Cloudy
7:54 PM 32.0 °F 26.4 °F 26.6 °F 80% 30.26 in 10.0 mi NE 5.8 mph - N/A   Scattered Clouds
8:15 PM 30.2 °F 23.4 °F 26.6 °F 86% 30.26 in 10.0 mi NE 6.9 mph - N/A   Clear
8:34 PM 30.2 °F 25.4 °F 26.6 °F 86% 30.26 in 10.0 mi NE 4.6 mph - N/A   Mostly Cloudy
8:54 PM 30.2 °F 24.3 °F 26.6 °F 86% 30.26 in 10.0 mi NE 5.8 mph - N/A   Mostly Cloudy
9:15 PM 30.2 °F 24.3 °F 24.8 °F 80% 30.25 in 10.0 mi ENE 5.8 mph - N/A   Mostly Cloudy
9:34 PM 30.2 °F 24.3 °F 24.8 °F 80% 30.25 in 10.0 mi East 5.8 mph - N/A   Mostly Cloudy
9:54 PM 30.2 °F 24.3 °F 24.8 °F 80% 30.25 in 10.0 mi ENE 5.8 mph - N/A   Mostly Cloudy
10:15 PM 28.4 °F 24.6 °F 24.8 °F 86% 30.25 in 10.0 mi ENE 3.5 mph - N/A   Scattered Clouds
10:34 PM 28.4 °F 24.6 °F 24.8 °F 86% 30.26 in 10.0 mi NNE 3.5 mph - N/A   Clear
10:54 PM 28.4 °F 23.3 °F 23.0 °F 80% 30.26 in 10.0 mi NNE 4.6 mph - N/A   Clear
11:15 PM 26.6 °F 21.2 °F 21.2 °F 80% 30.25 in 10.0 mi NE 4.6 mph - N/A   Clear
11:34 PM 24.8 °F 19.1 °F 21.2 °F 86% 30.25 in 10.0 mi ENE 4.6 mph - N/A   Clear
11:53 PM 24.8 °F 17.9 °F 21.2 °F 86% 30.25 in 10.0 mi ENE 5.8 mph - N/A   Clear